Wind_Speed
15 20 22 25 23 21 15 20 20 20 19 14 12 8 15 20 18 18 12 10 6 18 20 13 11 12 14 16 20 16 19 20 18 17 15 15 12 16 16 18 20 22 23
11 14 18 23 22 20 19 17 19 16 11 14 13 10 11 13 19 15 12 10 8 12 17 18 20 16 21 23 20 20 18 18 16 14 13 12 11 13 15 16 16 17 21
7 10 15 19 21 21 18 18 12 15 14 14 14 11 11 13 8 5 8 10 5 5 7 13 16 18 20 18 20 17 16 17 18 15 14 13 14 16 17 17 18 18 20
5 8 11 14 17 17 21 19 17 10 20 24 18 13 13 15 11 8 12 11 9 7 7 10 13 15 15 17 19 21 18 16 19 17 18 15 16 17 18 20 22 25 25
4 6 9 12 14 16 18 20 21 17 9 20 20 18 17 15 16 15 18 9 15 7 3 9 11 9 10 16 20 23 26 21 21 21 22 23 23 23 26 27 27 27 31
7 6 7 9 10 13 14 18 19 20 17 10 18 19 19 18 16 17 22 25 20 13 8 8 12 11 12 12 14 18 22 24 28 25 26 26 25 25 27 28 31 33 36
10 8 7 8 6 10 12 13 16 18 19 17 8 13 17 22 18 17 16 22 24 19 14 11 11 11 14 16 18 19 21 24 26 28 29 30 32 34 37 39 39 40 41
13 12 10 9 7 6 7 10 12 12 14 15 15 10 11 15 16 17 17 21 19 19 16 12 8 11 12 16 18 20 19 26 29 33 35 40 40 43 43 40 43 44 46
14 14 13 8 6 1 2 5 8 8 9 9 10 10 10 9 10 14 14 14 15 17 17 17 17 22 24 30 33 31 32 36 35 31 30 29 29 30 30 32 34 36 37
14 13 13 13 9 6 2 3 4 6 6 7 7 6 7 7 6 4 2 9 15 17 19 22 27 27 31 28 26 25 24 24 22 20 19 18 17 17 17 17 18 20 22
18 14 15 15 15 11 10 7 3 1 2 3 3 3 2 3 4 4 4 5 5 5 5 6 8 11 11 11 12 13 15 15 15 15 15 16 16 18 19 20 22 23 25
24 22 20 19 18 18 15 14 10 7 3 2 1 1 1 0 1 2 4 4 5 5 6 7 9 11 12 13 15 16 16 17 17 18 19 19 21 23 24 25 26 27 27
29 29 26 23 21 21 21 18 17 15 11 7 4 4 4 4 5 3 2 4 7 10 12 13 14 15 16 17 18 19 20 21 21 22 25 25 26 27 27 29 31 31 31
27 30 30 28 23 24 23 22 22 21 18 16 12 8 7 9 10 9 7 5 7 9 11 14 14 15 18 21 23 25 26 27 29 29 30 33 33 35 37 37 37 39 40
35 33 36 33 28 28 28 27 26 26 25 24 20 16 15 14 13 12 13 15 15 12 12 14 14 18 20 20 21 23 26 27 29 31 33 35 37 39 39 43 46 47 49
43 39 37 37 34 33 31 31 30 30 30 30 28 26 24 20 19 19 19 19 20 19 19 20 21 22 23 24 26 27 26 26 28 31 33 35 40 43 45 46 46 52 54
45 46 38 37 38 35 36 34 34 34 34 33 33 32 32 30 28 27 24 24 25 25 26 27 27 28 29 30 32 31 33 34 36 41 43 45 48 50 52 56 44 53 58
45 50 46 39 40 39 37 39 39 37 34 35 36 36 36 36 36 33 33 32 31 29 31 31 32 34 34 34 36 38 37 41 42 45 48 51 55 57 61 63 63 66 74
47 49 53 46 41 42 42 42 40 40 42 41 39 38 39 41 41 39 39 39 39 39 36 34 34 36 39 38 41 42 44 47 48 51 55 60 65 67 69 71 73 76 80
50 52 54 54 47 44 44 41 44 41 41 44 42 43 41 43 44 43 42 42 41 43 39 37 38 40 42 43 45 46 48 50 51 60 62 67 68 73 73 77 80 83 85
54 52 55 56 54 51 51 49 44 44 46 45 44 44 42 41 43 45 46 44 44 44 44 40 44 45 46 45 46 49 50 55 61 63 68 72 77 79 82 80 82 86 91
55 56 54 57 57 56 54 53 50 45 45 47 47 45 48 43 44 45 49 50 50 47 46 46 48 49 48 47 49 58 59 63 64 69 74 78 83 86 84 85 90 93 94
60 59 59 58 57 57 58 56 53 49 48 50 49 50 49 47 46 47 49 52 52 53 48 49 52 50 51 55 58 61 64 67 70 76 81 85 90 89 88 89 92 93 90
69 66 62 62 60 58 59 59 57 53 50 52 53 53 52 50 49 50 50 51 51 50 55 52 54 56 58 61 63 65 68 73 76 84 88 91 88 87 87 90 90 86 84
72 67 65 62 58 56 59 61 59 57 56 55 56 56 53 52 52 51 53 52 50 52 54 54 56 60 63 65 67 68 72 77 82 85 91 92 89 88 90 91 88 85 83
74 68 66 64 64 61 60 62 63 62 59 58 56 54 52 53 52 53 54 53 52 53 54 56 60 65 67 68 68 73 80 86 89 90 90 84 84 86 90 90 87 85 83
Wind_Direction
12 10 6 24 34 53 99 133 136 150 151 154 149 133 162 182 188 200 227 237 224 193 198 226 236 249 252 271 277 281 289 279 276 285 286 295 301 289 276 264 260 258 256
3 9 6 14 34 44 66 127 147 148 148 148 149 135 153 162 193 211 211 228 231 227 213 263 266 260 257 255 276 285 276 266 264 269 272 278 280 273 269 262 255 251 251
334 355 2 8 16 45 54 75 138 167 162 161 159 162 167 167 170 183 198 206 194 243 254 260 250 251 258 265 271 265 255 250 259 264 268 272 275 281 284 270 262 253 243
333 333 357 359 12 30 51 57 73 136 171 180 173 168 167 164 163 175 186 197 218 209 207 234 241 256 262 257 263 253 255 259 253 268 271 274 272 271 268 276 269 258 246
303 310 342 360 18 21 34 52 56 67 148 180 183 188 184 180 180 171 162 212 233 235 253 231 229 249 262 266 256 257 257 263 268 267 266 277 272 270 268 271 273 272 259
273 284 330 342 10 26 33 41 56 59 67 165 186 193 201 203 200 187 174 179 207 242 226 231 229 250 269 282 264 263 261 263 265 270 270 276 273 276 277 272 270 272 271
272 286 278 322 338 19 39 45 54 62 66 69 163 179 196 202 199 201 207 206 219 232 228 227 236 249 262 275 275 265 263 266 270 266 268 284 283 283 279 280 277 273 276
271 279 272 282 312 13 41 47 63 67 69 75 82 111 185 184 189 206 217 214 219 225 233 233 252 276 278 282 279 287 277 282 282 286 282 287 286 286 288 283 282 283 284
267 267 273 263 278 294 48 64 61 69 70 72 74 89 99 112 180 202 210 215 220 212 231 246 259 263 268 287 276 275 276 276 281 284 282 283 286 287 287 288 289 288 288
259 263 262 267 258 233 214 195 75 80 75 76 80 88 106 125 130 125 153 226 224 236 252 256 254 265 279 277 276 275 275 281 282 281 282 285 289 295 293 291 287 287 288
250 252 255 261 261 249 226 229 218 157 121 74 42 37 80 127 132 144 158 166 181 207 233 259 267 265 270 274 274 276 279 283 288 287 287 289 290 291 293 298 299 299 298
252 253 255 257 253 257 245 236 243 235 211 169 120 334 355 99 204 223 223 228 234 241 247 250 252 258 265 271 275 277 280 282 285 290 292 298 300 302 303 302 301 300 300
251 254 255 258 251 249 252 245 245 249 248 233 222 215 219 235 300 287 309 291 281 276 272 269 269 271 275 276 277 280 282 284 286 287 291 291 294 295 297 298 298 296 295
258 254 254 257 254 252 248 249 249 248 251 248 247 243 242 252 261 256 255 272 301 286 283 275 277 284 283 282 282 283 284 286 288 290 294 298 298 298 297 293 292 292 291
257 255 253 254 257 252 252 251 248 250 251 251 249 247 253 260 260 270 273 286 286 286 288 276 276 287 288 289 291 294 291 290 290 293 294 298 302 299 299 302 299 297 293
264 253 253 253 252 254 251 252 252 251 252 253 255 259 261 261 266 266 275 283 286 290 297 303 298 298 299 292 287 290 290 290 291 292 293 296 293 297 297 296 295 294 291
254 250 250 254 254 254 252 250 251 255 253 255 256 257 263 268 267 275 277 278 281 283 279 291 294 298 302 302 303 296 303 303 302 305 301 298 295 294 297 295 297 286 282
250 250 248 252 254 254 255 254 251 250 252 254 258 262 261 265 268 268 278 278 275 280 278 282 288 292 295 302 304 304 302 302 300 302 307 305 296 299 296 293 291 282 284
249 245 246 249 253 253 254 256 259 256 254 256 257 260 264 265 265 272 276 279 278 277 280 280 281 288 297 299 299 300 300 302 300 303 304 301 302 300 298 295 293 290 287
266 246 247 249 250 254 254 259 258 258 260 262 263 262 264 268 270 269 272 277 277 277 279 281 281 287 291 295 296 298 297 293 298 301 305 302 302 301 298 296 294 290 288
261 254 247 249 252 254 254 256 258 259 259 263 263 265 263 266 268 269 269 272 273 273 278 280 283 286 287 290 292 293 295 293 297 302 303 304 303 303 301 297 293 291 291
256 259 255 249 254 253 254 256 257 260 262 262 260 263 264 268 269 270 272 271 273 273 277 282 283 284 288 288 288 291 293 294 297 302 302 304 305 303 300 296 293 293 292
254 252 255 255 251 252 253 255 257 257 260 261 261 262 266 265 273 274 276 274 275 274 279 284 284 287 290 289 288 289 293 296 299 302 304 306 305 303 300 297 297 296 295
249 252 254 257 259 253 252 254 257 260 260 263 262 262 264 267 273 273 278 280 279 278 282 285 285 287 285 286 287 289 293 298 300 303 306 307 305 302 301 301 301 299 298
247 250 254 258 257 258 252 253 256 258 259 261 263 263 266 269 271 272 275 278 279 280 280 285 285 284 284 285 285 291 295 297 301 304 308 307 304 304 305 306 304 303 301
249 250 250 249 254 255 252 251 251 253 256 261 264 267 268 269 268 271 273 275 278 279 281 284 285 285 284 285 287 295 296 299 302 305 307 303 303 307 308 308 306 305 303
Height
10870 10869 10865 10860 10857 10851 10847 10846 10846 10847 10846 10846 10848 10849 10849 10853 10854 10857 10861 10864 10865 10867 10870 10872 10875 10878 10879 10880 10881 10881 10881 10883 10883 10883 10883 10883 10882 10882 10882 10881 10881 10881 10881
10870 10869 10867 10862 10860 10856 10850 10847 10846 10847 10846 10847 10848 10850 10853 10854 10858 10859 10861 10862 10865 10866 10870 10871 10873 10875 10877 10879 10879 10879 10880 10881 10881 10881 10881 10881 10880 10880 10880 10879 10878 10878 10878
10869 10869 10868 10865 10862 10859 10855 10850 10847 10846 10847 10848 10849 10851 10854 10857 10858 10861 10862 10865 10865 10866 10868 10871 10872 10874 10876 10876 10878 10878 10879 10878 10879 10879 10879 10878 10877 10877 10877 10876 10876 10875 10875
10868 10868 10867 10866 10864 10860 10857 10853 10849 10847 10847 10849 10849 10852 10854 10856 10859 10860 10862 10865 10866 10867 10868 10869 10869 10871 10873 10874 10875 10876 10877 10876 10876 10876 10876 10875 10874 10874 10874 10874 10873 10873 10872
10867 10867 10867 10866 10865 10862 10858 10856 10853 10850 10848 10849 10850 10851 10853 10855 10858 10860 10863 10863 10864 10865 10866 10867 10868 10869 10870 10870 10872 10873 10873 10873 10873 10873 10872 10873 10872 10871 10871 10870 10870 10869 10869
10867 10867 10866 10866 10865 10863 10861 10857 10855 10854 10852 10851 10851 10852 10853 10855 10858 10860 10862 10862 10864 10865 10865 10865 10866 10866 10867 10868 10869 10869 10869 10870 10869 10869 10868 10868 10868 10867 10866 10865 10865 10864 10863
10866 10866 10865 10865 10865 10863 10861 10860 10857 10855 10855 10854 10853 10854 10855 10856 10858 10860 10861 10863 10863 10864 10865 10865 10865 10865 10866 10866 10866 10866 10865 10865 10866 10865 10864 10864 10863 10862 10861 10859 10858 10857 10855
10865 10864 10864 10865 10865 10865 10863 10861 10860 10858 10857 10857 10857 10857 10857 10856 10857 10858 10859 10860 10861 10863 10863 10865 10865 10865 10865 10864 10864 10864 10864 10864 10863 10862 10860 10859 10857 10855 10854 10853 10852 10850 10847
10862 10863 10864 10864 10865 10865 10865 10864 10862 10861 10860 10859 10858 10858 10858 10858 10858 10859 10859 10860 10860 10861 10863 10863 10863 10862 10861 10860 10859 10858 10858 10858 10857 10855 10853 10852 10850 10849 10847 10845 10843 10841 10839
10860 10861 10862 10863 10864 10864 10864 10864 10864 10862 10861 10861 10861 10860 10860 10859 10859 10860 10860 10860 10861 10861 10860 10860 10859 10859 10859 10856 10855 10855 10855 10854 10852 10850 10848 10845 10843 10842 10840 10838 10836 10833 10831
10858 10858 10859 10860 10862 10863 10863 10863 10863 10863 10861 10861 10860 10860 10860 10861 10860 10859 10859 10859 10859 10859 10858 10858 10857 10857 10856 10854 10853 10853 10852 10851 10849 10847 10845 10843 10841 10839 10836 10834 10831 10829 10827
10855 10856 10856 10858 10859 10860 10861 10861 10862 10862 10862 10861 10861 10861 10860 10860 10860 10859 10859 10859 10858 10858 10857 10856 10856 10855 10854 10853 10852 10851 10850 10848 10846 10843 10841 10839 10837 10834 10832 10830 10827 10825 10823
10851 10852 10852 10854 10855 10856 10857 10859 10859 10860 10860 10860 10860 10860 10860 10860 10859 10858 10858 10857 10856 10856 10855 10855 10854 10853 10851 10850 10849 10847 10846 10844 10842 10840 10837 10835 10833 10830 10828 10826 10824 10821 10817
10846 10848 10848 10849 10852 10853 10853 10855 10855 10857 10857 10858 10858 10858 10858 10858 10858 10858 10857 10857 10856 10854 10853 10852 10851 10850 10848 10846 10844 10843 10841 10839 10837 10835 10833 10830 10829 10827 10824 10821 10819 10816 10812
10841 10842 10843 10846 10847 10848 10850 10850 10852 10853 10854 10854 10855 10855 10855 10855 10855 10855 10855 10855 10854 10852 10851 10849 10849 10847 10845 10843 10841 10838 10836 10834 10832 10830 10828 10826 10823 10820 10819 10816 10810 10806 10803
10834 10835 10837 10840 10841 10843 10845 10846 10847 10848 10849 10850 10850 10851 10851 10851 10850 10850 10850 10850 10849 10848 10846 10845 10845 10843 10841 10839 10837 10834 10832 10830 10827 10825 10823 10822 10817 10813 10810 10808 10802 10796 10791
10827 10827 10831 10832 10835 10837 10839 10840 10841 10841 10843 10844 10845 10845 10846 10846 10845 10845 10845 10845 10843 10843 10841 10839 10837 10836 10833 10832 10830 10827 10824 10821 10818 10816 10814 10813 10810 10804 10802 10798 10789 10780 10781
10819 10821 10824 10825 10828 10829 10831 10833 10834 10835 10836 10838 10839 10839 10840 10840 10840 10839 10839 10839 10837 10836 10835 10832 10830 10828 10826 10824 10821 10819 10816 10814 10810 10807 10806 10803 10794 10794 10788 10781 10780 10776 10767
10809 10814 10815 10817 10820 10822 10824 10825 10827 10828 10830 10832 10832 10833 10833 10833 10833 10832 10831 10831 10830 10828 10827 10824 10822 10820 10818 10816 10813 10811 10809 10805 10801 10798 10798 10790 10785 10779 10775 10769 10761 10757 10749
10797 10805 10807 10809 10811 10813 10815 10818 10819 10821 10823 10823 10825 10826 10826 10826 10826 10825 10825 10824 10823 10822 10820 10818 10815 10813 10810 10808 10805 10802 10799 10793 10792 10786 10787 10777 10774 10767 10760 10752 10744 10735 10729
10789 10794 10797 10800 10802 10804 10806 10809 10811 10813 10814 10815 10817 10817 10817 10817 10818 10817 10817 10817 10815 10815 10813 10811 10808 10805 10801 10799 10795 10793 10790 10783 10780 10777 10771 10763 10756 10750 10741 10733 10723 10714 10705
10780 10782 10785 10788 10792 10794 10796 10800 10803 10805 10805 10805 10807 10808 10808 10809 10809 10809 10808 10808 10807 10806 10804 10802 10799 10796 10792 10789 10784 10780 10778 10771 10768 10764 10754 10748 10739 10731 10723 10714 10704 10695 10685
10767 10770 10773 10777 10779 10783 10786 10789 10792 10795 10796 10796 10797 10798 10799 10800 10800 10800 10799 10798 10797 10796 10794 10791 10789 10786 10782 10778 10774 10769 10764 10761 10755 10747 10739 10730 10720 10711 10701 10691 10682 10673 10663
10751 10758 10762 10765 10768 10772 10776 10778 10782 10785 10784 10784 10785 10787 10788 10789 10790 10789 10788 10787 10786 10785 10783 10780 10778 10775 10771 10767 10762 10757 10752 10745 10738 10727 10722 10713 10702 10691 10680 10669 10659 10648 10638
10738 10745 10749 10753 10756 10759 10763 10766 10770 10771 10773 10774 10774 10776 10778 10779 10779 10778 10777 10776 10775 10773 10771 10769 10766 10763 10759 10754 10749 10744 10738 10732 10725 10717 10703 10688 10676 10668 10657 10647 10635 10627 10615
10725 10731 10736 10742 10744 10748 10750 10752 10754 10758 10761 10763 10764 10766 10768 10768 10768 10767 10767 10765 10764 10761 10759 10756 10753 10750 10745 10740 10735 10729 10722 10714 10707 10699 10690 10679 10669 10655 10640 10628 10615 10605 10594